[[{"header":{"parameterUnit":"m.s-1","parameterCategory":1,"la1":30.2991,"la2":30.254,"lo1":-89.0895,"lo2":-89.0444,"dy":0.0017,"dx":0.0017,"nx":28,"ny":28,"refTime":"2024-03-20T09:00:00:Z","depth":0,"parameterNumber":2,"parameterNumberName":"U-component_of_WINDS"},"data":[0,0,0,0,0,0,0,0,0,0,0,0,0,0,0,0,0,0,0,0,0,0,0,0,0,0,0,0,0,0,0,0,0,0,0,0,0,0,0,0,0,0,0,0,0,0,0,0,0,0,0,0,0,0,0,0,0,0,1.0655,1.0656,0,1.0726,1.0726,1.0727,1.0741,1.0741,1.074,1.074,1.0816,1.0818,1.082,0,0,0,0,0,0,0,0,0,0,0,0,0,1.0535,1.0537,1.0655,1.0656,1.0657,1.0725,1.0726,1.0727,1.0742,1.0741,1.074,1.074,1.0815,1.0818,1.0821,0,0,0,0,0,0,0,0,0,0,0,0,0,1.0594,1.0538,1.0655,1.0672,1.0674,1.0725,1.0726,1.0728,1.0742,1.0741,1.074,1.0739,1.0814,1.0817,1.0821,1.0861,0,0,1.0833,1.0834,0,0,0,0,0,0,0,0,1.0591,1.0599,1.0669,1.0671,1.0674,1.0724,1.0712,1.0772,1.0742,1.0716,1.074,1.0739,1.0786,1.0792,1.0807,1.0864,1.0868,1.0833,1.0835,1.0837,1.0838,0,0,0,0,0,0,0,1.0587,1.0596,1.0683,1.067,1.0673,1.0677,1.0684,1.0723,1.0755,1.0718,1.072,1.0728,1.0787,1.0803,1.0809,1.0869,1.0833,1.0836,1.0839,1.084,1.096,1.096,0,0,0,0,0,0,1.0579,1.0592,1.0681,1.0685,1.0629,1.068,1.0688,1.0709,1.0755,1.0761,1.0728,1.0728,1.0797,1.0804,1.0812,1.086,1.0837,1.084,1.0843,1.0959,1.096,1.0961,0,0,0,0,0,0,1.0577,1.0587,1.0678,1.0639,1.0651,1.0683,1.0706,1.071,1.0727,1.0762,1.0768,1.0739,1.0797,1.0806,1.0848,1.0862,1.0842,1.0846,1.0958,1.0959,1.096,1.0957,0,0,0,0,0,0,1.0573,1.0586,1.0601,1.0639,1.0653,1.0713,1.0707,1.0712,1.0733,1.0733,1.0773,1.0779,1.0797,1.0842,1.0851,1.0867,1.0849,1.0956,1.0958,1.096,1.0956,1.0958,1.0959,0,0,0,0,0,1.0569,1.0599,1.0602,1.0613,1.0673,1.0714,1.0721,1.074,1.0734,1.075,1.0772,1.0778,1.0859,1.0846,1.0857,1.0874,1.0956,1.0958,1.096,1.0955,1.0957,1.0959,0,0,0,0,0,0,1.0564,1.0604,1.0608,1.0652,1.0679,1.0716,1.0736,1.0743,1.0773,1.0772,1.0795,1.0804,1.0844,1.0863,1.0848,1.0914,1.0907,1.0911,1.0899,1.0902,1.0904,1.0899,1.0852,0,0,0,0,0,1.0568,1.0597,1.0631,1.0666,1.0679,1.0705,1.0724,1.0735,1.0765,1.0777,1.0802,1.0831,1.0863,1.0884,1.0915,1.0958,1.0966,1.0975,1.0977,1.0978,1.0982,1.1004,1.1008,1.0967,1.0967,1.0967,0,0,1.0577,1.0602,1.0619,1.0665,1.0688,1.0717,1.0715,1.0747,1.0769,1.0782,1.0822,1.0841,1.0875,1.0917,1.0936,1.0934,1.0994,1.0981,1.0982,1.0985,1.1006,1.101,1.1013,1.0969,1.0968,1.0968,0,0,1.0607,1.063,1.066,1.0682,1.0715,1.0731,1.0738,1.0774,1.0786,1.0826,1.0836,1.0863,1.0918,1.0941,1.0959,1.0995,1.1001,1.1005,1.1015,1.1036,1.1039,1.1042,1.1054,1.1058,1.1008,1.1008,1.1008,0,1.0614,1.0658,1.0675,1.0706,1.0725,1.0736,1.0766,1.0787,1.0829,1.0842,1.0839,1.0905,1.093,1.0975,1.0983,1.0999,1.1007,1.1001,1.1037,1.104,1.1043,1.1054,1.1059,1.1008,1.1008,1.1008,1.1008,0,1.0664,1.0695,1.0715,1.0753,1.0775,1.0806,1.0827,1.0847,1.0856,1.0872,1.0912,1.094,1.0976,1.0988,1.0998,1.1035,1.1032,1.1033,1.1027,1.1047,1.1058,1.1062,1.1008,1.1008,1.1008,1.1008,0,0,1.0696,1.0741,1.0748,1.0764,1.08,1.0824,1.0854,1.0887,1.0903,1.0931,1.0957,1.1001,1.1001,1.1022,1.1035,1.1053,1.1077,1.1051,1.1052,1.1054,1.1117,1.1116,1.1121,1.1081,1.1082,1.1083,1.1114,0,1.0731,1.0784,1.0799,1.0844,1.0871,1.088,1.0906,1.0931,1.0947,1.0972,1.0991,1.1021,1.1019,1.1031,1.105,1.107,1.109,1.1068,1.1105,1.1106,1.1096,1.1127,1.1127,1.1155,1.1119,1.1119,1.112,0,1.0778,1.0804,1.0852,1.0881,1.0893,1.0916,1.0947,1.0971,1.0999,1.1009,1.1031,1.1041,1.1072,1.1063,1.1106,1.1091,1.1107,1.1119,1.112,1.1125,1.1114,1.1132,1.1165,1.1169,1.1127,1.1126,1.1126,0,1.0795,1.0843,1.0876,1.089,1.0926,1.0941,1.0957,1.0984,1.1002,1.1028,1.104,1.1071,1.1088,1.1111,1.1128,1.1121,1.1169,1.1163,1.1179,1.1178,1.1189,1.1188,1.1225,1.12,1.1199,1.1199,1.1199,0,1.0832,1.086,1.0884,1.0905,1.0936,1.0952,1.0983,1.0999,1.1022,1.1046,1.1056,1.1079,1.11,1.1125,1.114,1.1172,1.118,1.1189,1.1192,1.1188,1.1186,1.1199,1.1197,1.1201,1.12,1.12,1.12,0,1.0857,1.0874,1.0911,1.094,1.0948,1.097,1.0995,1.1016,1.103,1.106,1.1068,1.1092,1.1122,1.1141,1.118,1.1189,1.1224,1.1228,1.1215,1.1216,1.123,1.1228,1.1276,1.1283,1.1253,1.1254,1.1254,0,1.0879,1.09,1.0931,1.0947,1.0962,1.0988,1.1006,1.1022,1.104,1.1071,1.1087,1.1117,1.1142,1.1189,1.121,1.1239,1.1242,1.1257,1.1247,1.1241,1.1241,1.124,1.1241,1.1259,1.1259,1.1259,1.1259,0,1.0916,1.0923,1.0947,1.0974,1.0994,1.1017,1.1039,1.1052,1.1071,1.1091,1.112,1.1139,1.1177,1.1206,1.1236,1.1253,1.1259,1.1262,1.1267,1.1263,1.1254,1.1257,1.1218,1.1261,1.1261,1.1261,1.1261,1.126,1.094,1.0958,1.0982,1.1008,1.1026,1.1046,1.1066,1.1082,1.1106,1.1137,1.1145,1.1175,1.12,1.1241,1.1257,1.1281,1.128,1.1287,1.1289,1.1291,1.129,1.1249,1.1287,1.1287,1.1287,1.1287,1.1287,0,1.0977,1.0991,1.1015,1.1045,1.1065,1.1067,1.1091,1.1108,1.1134,1.1156,1.1179,1.1212,1.1239,1.1261,1.1289,1.1304,1.1307,1.1311,1.131,1.1313,1.129,1.1283,1.1307,1.1307,1.1307,1.1307,1.1307,1.1307,1.0998,1.1029,1.1038,1.1077,1.1092,1.112,1.1133,1.1152,1.1169,1.1204,1.1226,1.1239,1.1261,1.129,1.1315,1.1321,1.133,1.1333,1.1339,1.1318,1.1315,1.1313,1.1306,1.1335,1.1335,1.136,1.136,1.1361]},{"header":{"parameterUnit":"m.s-1","parameterCategory":1,"la1":30.2991,"la2":30.254,"lo1":-89.0895,"lo2":-89.0444,"dy":0.0017,"dx":0.0017,"nx":28,"ny":28,"refTime":"2024-03-20T09:00:00:Z","depth":0,"parameterNumber":3,"parameterNumberName":"V-component_of_WINDS"},"data":[0,0,0,0,0,0,0,0,0,0,0,0,0,0,0,0,0,0,0,0,0,0,0,0,0,0,0,0,0,0,0,0,0,0,0,0,0,0,0,0,0,0,0,0,0,0,0,0,0,0,0,0,0,0,0,0,0,0,3.1067,3.1066,0,3.1032,3.1032,3.1031,3.104,3.1041,3.1042,3.1043,3.1,3.0999,3.0997,0,0,0,0,0,0,0,0,0,0,0,0,0,3.1134,3.1133,3.1067,3.1066,3.1066,3.1032,3.1032,3.1031,3.104,3.1041,3.1042,3.1043,3.1001,3.0999,3.0997,0,0,0,0,0,0,0,0,0,0,0,0,0,3.1103,3.1133,3.1067,3.1067,3.1066,3.1032,3.1032,3.1031,3.104,3.1041,3.1042,3.1043,3.1002,3.0999,3.0996,3.0958,0,0,3.0988,3.0987,0,0,0,0,0,0,0,0,3.1105,3.11,3.1067,3.1067,3.1066,3.1042,3.104,3.1006,3.104,3.105,3.1043,3.1044,3.1013,3.1009,3.1,3.0956,3.0955,3.0988,3.0986,3.0985,3.0984,0,0,0,0,0,0,0,3.1107,3.1102,3.1053,3.1067,3.1066,3.1066,3.1063,3.1034,3.1025,3.1049,3.105,3.1046,3.1013,3.1003,3.0999,3.0954,3.0988,3.0986,3.0984,3.0983,3.0876,3.0875,0,0,0,0,0,0,3.111,3.1104,3.1054,3.1052,3.1089,3.1064,3.106,3.1048,3.1026,3.1024,3.1045,3.1046,3.1007,3.1002,3.0998,3.0951,3.0985,3.0983,3.0981,3.0877,3.0875,3.0874,0,0,0,0,0,0,3.1112,3.1106,3.1055,3.1078,3.1072,3.1062,3.1048,3.1047,3.1037,3.1023,3.1021,3.1037,3.1007,3.1002,3.0968,3.095,3.0981,3.0979,3.0878,3.0877,3.0875,3.0857,0,0,0,0,0,0,3.1114,3.1106,3.1093,3.1078,3.107,3.1028,3.1047,3.1046,3.1034,3.1035,3.1015,3.1012,3.1008,3.0972,3.0966,3.0946,3.0977,3.088,3.0878,3.0875,3.086,3.0855,3.0851,0,0,0,0,0,3.1116,3.1089,3.1093,3.1087,3.1054,3.1027,3.1023,3.102,3.1032,3.1018,3.1008,3.1013,3.0953,3.0969,3.0961,3.0941,3.0881,3.0878,3.0876,3.0861,3.0856,3.0852,0,0,0,0,0,0,3.11,3.1087,3.1091,3.1058,3.1044,3.1029,3.1011,3.1015,3.0996,3.0998,3.0993,3.0989,3.0954,3.0945,3.0962,3.0902,3.0918,3.0914,3.091,3.0905,3.0901,3.0903,3.0975,0,0,0,0,0,3.1093,3.1075,3.1063,3.1035,3.1028,3.1021,3.1009,3.1008,3.0993,3.0986,3.0974,3.0957,3.0934,3.0919,3.0898,3.0859,3.0853,3.0841,3.0837,3.0834,3.0829,3.0806,3.08,3.0865,3.0865,3.0865,0,0,3.1078,3.1068,3.1056,3.1031,3.1021,3.0999,3.1016,3.0992,3.0976,3.0982,3.095,3.0941,3.0921,3.0885,3.0868,3.0875,3.081,3.083,3.0828,3.0825,3.0803,3.0796,3.0791,3.0863,3.0863,3.0864,0,0,3.1039,3.103,3.1006,3.0995,3.0979,3.0975,3.0969,3.0953,3.0948,3.0916,3.092,3.0899,3.0861,3.0846,3.0834,3.0789,3.0792,3.0782,3.076,3.0738,3.0733,3.0728,3.071,3.0704,3.0778,3.0778,3.0778,0,3.1021,3.0991,3.0992,3.0969,3.0957,3.0964,3.0937,3.0926,3.0903,3.0893,3.0903,3.0854,3.0842,3.0801,3.079,3.0781,3.0772,3.0784,3.0734,3.0729,3.0725,3.0708,3.0701,3.0777,3.0777,3.0777,3.0777,0,3.0969,3.0948,3.093,3.091,3.0896,3.0871,3.0866,3.0852,3.0852,3.0846,3.0813,3.0798,3.0773,3.0764,3.0763,3.0722,3.0727,3.0735,3.0751,3.0717,3.0701,3.0695,3.0775,3.0776,3.0776,3.0776,0,0,3.0918,3.0899,3.0892,3.0883,3.0866,3.0849,3.0823,3.0801,3.0788,3.0772,3.0749,3.0716,3.0723,3.0709,3.0707,3.0688,3.0651,3.0698,3.0697,3.0688,3.0603,3.0596,3.0589,3.0654,3.0653,3.0652,3.0604,0,3.0876,3.0834,3.0834,3.0794,3.0774,3.078,3.0758,3.0744,3.0737,3.0717,3.0709,3.0685,3.0698,3.0689,3.067,3.066,3.0634,3.0663,3.063,3.0628,3.0633,3.0581,3.0573,3.053,3.0598,3.0597,3.0596,0,3.0822,3.0806,3.0765,3.075,3.0742,3.0722,3.0701,3.0683,3.0666,3.0662,3.0647,3.0648,3.0619,3.0637,3.0597,3.0617,3.0603,3.0596,3.0594,3.0589,3.0609,3.0573,3.0516,3.0508,3.0587,3.0588,3.0588,0,3.0787,3.0755,3.0726,3.0718,3.0701,3.0686,3.0678,3.0663,3.0649,3.063,3.0621,3.0598,3.0585,3.0566,3.056,3.0574,3.0519,3.0537,3.0513,3.0513,3.0499,3.05,3.0437,3.0493,3.0494,3.0494,3.0494,0,3.0739,3.0713,3.071,3.0692,3.0662,3.0662,3.0632,3.0624,3.061,3.0589,3.0593,3.0572,3.0566,3.0544,3.0539,3.0505,3.0499,3.0494,3.0492,3.0492,3.0493,3.0482,3.0484,3.0492,3.0492,3.0493,3.0493,0,3.0694,3.0692,3.066,3.0647,3.0643,3.0621,3.0609,3.059,3.0585,3.0558,3.0551,3.0541,3.0515,3.0508,3.0476,3.0472,3.0432,3.0434,3.0438,3.0438,3.0414,3.0415,3.034,3.033,3.0394,3.0394,3.0393,0,3.0664,3.0644,3.0629,3.0617,3.0608,3.0587,3.0574,3.0572,3.0558,3.0537,3.052,3.0495,3.0475,3.0433,3.0421,3.0396,3.0396,3.0372,3.0392,3.0393,3.0394,3.0394,3.0391,3.0367,3.0367,3.0366,3.0366,0,3.0608,3.0608,3.059,3.0571,3.0556,3.054,3.0525,3.0513,3.0509,3.0492,3.0467,3.0451,3.042,3.0394,3.0369,3.0357,3.0359,3.036,3.0352,3.0352,3.0354,3.0351,3.0426,3.0361,3.0361,3.0362,3.0362,3.0362,3.0568,3.0551,3.0538,3.0517,3.0506,3.0492,3.0474,3.0467,3.0446,3.0422,3.0422,3.0393,3.0376,3.0343,3.033,3.0306,3.0313,3.0303,3.03,3.0297,3.0295,3.036,3.0302,3.0302,3.0302,3.0302,3.0302,0,3.0512,3.0505,3.0486,3.0466,3.0449,3.0456,3.0439,3.0424,3.04,3.0384,3.0365,3.0335,3.0309,3.0296,3.0271,3.0254,3.0254,3.0247,3.0247,3.0244,3.0291,3.0299,3.0247,3.0247,3.0247,3.0247,3.0247,3.0247,3.0481,3.0452,3.045,3.0414,3.0406,3.038,3.037,3.0356,3.0344,3.0311,3.0291,3.0283,3.0268,3.0241,3.0217,3.0214,3.0203,3.0195,3.0192,3.0235,3.0241,3.0246,3.0254,3.0193,3.0193,3.0147,3.0147,3.0146]}]]